Location: Recife
(8.0585°S, 34.8848°W)
Time: 20:42:03
(UTC-03:00)

Explorer 11/Cluster Stage 4 - Pass Details

Date: 18 April 2026
Orbit: 463 x 1174 km, 28.8° (Epoch: 16 May)

Event Time Altitude Azimuth Distance (km) Brightness Sun altitude
Rises 16:36:46 0° 321° (NW) 3,936 11.1 8.7°
Reaches altitude 10° 16:40:08 10° 331° (NNW) 2,900 10.2 7.8°
Maximum altitude 16:46:05 28° 28° (NNE) 1,718 8.3 6.4°
Drops below altitude 10° 16:51:16 10° 86° (E) 2,506 8.6 5.1°
Sets 16:53:57 0° 97° (E) 3,320 9.1 4.5°
